Regional Weather Roundup
Issued by NWS

Home | Current Version | Previous Version | Text Only | Print | Product List | Glossary Off
Versions: 1 2 3 4 5 6 7 8 9 10 11 12 13 14 15 16 17 18 19 20 21 22 23 24 25 26 27 28 29 30 31 32 33 34 35 36 37 38 39 40 41 42 43 44 45 46 47 48 49 50

254
ASUS43 KLMK 291402
RWRKY
KENTUCKY REGIONAL WEATHER ROUNDUP
NATIONAL WEATHER SERVICE LOUISVILLE KY
1000 AM EDT MON AUG 29 2016

NOTE "FAIR" INDICATES FEW OR NO CLOUDS BELOW 12,000 FEET
WITH NO SIGNIFICANT WEATHER AND/OR OBSTRUCTIONS TO VISIBILITY.

KYZ001>023-026-027-061>063-070>075-291500-
WESTERN AND SOUTH CENTRAL KENTUCKY

CITY           SKY/WX    TMP DP  RH WIND       PRES   REMARKS
PADUCAH        SUNNY     80  72  76 NE7       30.16S
HENDERSON      SUNNY     79  68  69 E6        30.18S
OWENSBORO      SUNNY     81  71  71 E7        30.20R
HOPKINSVILLE   SUNNY     76  70  80 E7        30.17R
BOWLING GREEN  SUNNY     78  71  79 E7        30.20R
GLASGOW        MOSUNNY   76  71  83 E5        30.20S
$$

KYZ024-025-028>034-038-045-046-053-291500-
NORTH CENTRAL KENTUCKY

CITY           SKY/WX    TMP DP  RH WIND       PRES   REMARKS
LOUISVILLE/SDF MOSUNNY   79  68  69 VRB3      30.21S
LOUISVILLE/LOU SUNNY     78  68  71 VRB3      30.22R
FORT KNOX      SUNNY     77  69  77 NE6       30.20R
$$

KYZ035>037-039>044-047>052-055>060-089>105-291500-
NORTHEAST KENTUCKY

CITY           SKY/WX    TMP DP  RH WIND       PRES   REMARKS
LEXINGTON      SUNNY     79  69  71 N5        30.23R
COVINGTON      MOSUNNY   77  70  79 NE7       30.24R
FRANKFORT      SUNNY     77  68  73 VRB3      30.22R
$$

KYZ054-064>069-076>088-106>120-291500-
SOUTHEAST KENTUCKY

CITY           SKY/WX    TMP DP  RH WIND       PRES   REMARKS
JACKSON        SUNNY     75  69  81 CALM      30.23R
LONDON         SUNNY     78  69  73 VRB3      30.22R
SOMERSET       SUNNY     75  72  88 CALM      30.23R
MIDDLESBORO    MOSUNNY   72  70  94 CALM      30.23S
MONTICELLO     CLOUDY   N/A N/A N/A VRB6      30.23R
$$





USA.gov is the U.S. government's official web portal to all federal, state and local government web resources and services.